Location: Innerarity Island Observatory
(30.3139°N, 87.4867°W)
Time: 18:08:43
(UTC-06:00)

Amateur Radio Satellites - All Passes

Search period start: 22 January 2018 17:38
Search period end: 23 January 2018 17:38
Location: Innerarity Island Observatory, 30.3139°N, 87.4867°W

Satellite Date Start Highest point End Downlink Frequencies (MHz)
Time Altitude Azimuth
XW-2D 22 Jan 17:44:38 17:48:06 33° 262° (W) 17:51:35 145.860 - 145.880
KKS-1 22 Jan 17:52:45 17:56:43 32° 287° (WNW) 18:00:41 437.445
HO-68 22 Jan 17:55:09 18:02:17 74° 73° (ENE) 18:09:24 435.675
nSIGHT-1 22 Jan 17:56:10 17:58:44 23° 128° (SE) 18:01:18 .
SEEDS 22 Jan 17:57:58 18:01:50 36° 74° (ENE) 18:05:42 437.485
STARS 22 Jan 18:02:37 18:07:01 71° 284° (WNW) 18:11:25 437.465
XW-2B 22 Jan 18:02:57 18:05:51 20° 264° (W) 18:08:46 145.730 - 145.750
CUTE 1.7 + AOD 2 22 Jan 18:14:01 18:18:16 74° 258° (WSW) 18:22:32 437.475
ISS 22 Jan 18:17:14 18:20:00 26° 129° (SE) 18:22:47 437.550
BEESAT 2 22 Jan 18:28:11 18:31:27 24° 56° (ENE) 18:34:40 435.950
PCSat 22 Jan 18:33:03 18:38:23 57° 64° (ENE) 18:43:41 145.827
CUTE-I 22 Jan 18:33:47 18:37:40 21° 264° (W) 18:41:34 437.470
FO-29 22 Jan 18:45:13 18:47:42 13° 95° (E) 18:50:14 435.910
CUBEBUG 2 22 Jan 18:46:47 18:50:57 49° 261° (W) 18:55:18 437.445
UWE-3 22 Jan 18:47:37 18:51:59 86° 77° (ENE) 18:56:32 435.000/436.395/437.385
STRAND 1 22 Jan 18:52:46 18:57:41 45° 100° (E) 19:02:36 437.568
XW-2A 22 Jan 18:57:54 19:01:17 67° 78° (ENE) 19:04:42 145.665 - 145.685
ZACube-1 22 Jan 19:06:41 19:11:04 70° 77° (ENE) 19:15:35 437.345
AAUSAT CUBESAT 2 22 Jan 19:08:29 19:12:36 71° 258° (WSW) 19:16:44 437.432
AO-73 22 Jan 19:12:10 19:16:33 70° 77° (ENE) 19:21:03 145.935
BEESAT 3 22 Jan 19:13:17 19:15:54 18° 251° (WSW) 19:18:30 437.485
AO-85 22 Jan 19:26:57 19:30:34 19° 54° (NE) 19:34:16 145.980
nSIGHT-1 22 Jan 19:32:24 19:34:50 20° 322° (NW) 19:37:15 .
SEEDS 22 Jan 19:35:40 19:37:33 13° 266° (W) 19:39:27 437.485
Oscar 11 22 Jan 19:43:16 19:47:37 81° 260° (W) 19:51:59 .
RS-15 22 Jan 19:45:01 19:49:59 14° 261° (W) 19:54:55 29.354- 29.394
HO-68 22 Jan 19:46:38 19:50:26 15° 266° (W) 19:54:15 435.675
ISS 22 Jan 19:54:00 19:56:27 19° 322° (NW) 19:58:54 437.550
BEESAT 2 22 Jan 20:06:06 20:08:58 19° 250° (WSW) 20:11:47 435.950
PCSat 22 Jan 20:18:36 20:21:12 14° 256° (WSW) 20:23:49 145.827
FO-29 22 Jan 20:28:01 20:32:59 49° 286° (WNW) 20:38:11 435.910
STRAND 1 22 Jan 20:33:18 20:36:26 17° 293° (WNW) 20:39:35 437.568
DELFI C3 22 Jan 21:00:34 21:04:23 53° 260° (W) 21:08:13 145.870
AO-85 22 Jan 21:06:13 21:11:09 47° 247° (WSW) 21:16:16 145.980
Max Valier Satellite 22 Jan 21:13:18 21:16:58 55° 260° (W) 21:20:38 145.860
TIGRISAT 22 Jan 21:21:03 21:25:42 59° 100° (E) 21:30:17 435.000
EO-88 22 Jan 21:26:58 21:30:34 58° 260° (W) 21:34:11 145.990 - 145.960
UNISAT 6 22 Jan 21:36:54 21:41:37 80° 283° (WNW) 21:46:16 437.425
YUBILEINY 22 Jan 22:02:17 22:10:42 51° 90° (E) 22:19:05 435.215
AIST 2D 22 Jan 22:14:19 22:16:45 18° 96° (E) 22:19:10 435.315
ESTCUBE 1 22 Jan 22:16:49 22:21:06 44° 74° (ENE) 22:25:25 437.505/2401.250
O/OREOS (USA 219) 22 Jan 22:23:21 22:25:27 13° 99° (E) 22:27:32 437.305
LO-87 22 Jan 22:39:17 22:42:47 63° 259° (W) 22:46:20 145.935 - 145.965
PRISM 22 Jan 22:44:29 22:48:31 64° 284° (WNW) 22:52:34 437.425
NO-84 22 Jan 22:49:56 22:50:28 10° 41° (NE) 22:50:59 435.350 FM
TIGRISAT 22 Jan 23:00:46 23:01:46 11° 294° (WNW) 23:02:47 435.000
POLYITAN 1 22 Jan 23:09:18 23:12:55 26° 97° (E) 23:16:30 437.675
NANOSAT C BR1 22 Jan 23:22:32 23:26:25 33° 98° (E) 23:30:14 145.865
SPROUT 22 Jan 23:22:38 23:26:45 54° 75° (ENE) 23:30:54 437.525
QB50P2 22 Jan 23:38:38 23:42:56 74° 102° (ESE) 23:47:10 145.880/145.840
VELOX 1 22 Jan 23:42:53 23:47:05 48° 75° (ENE) 23:51:19 145.980
AIST 2D 22 Jan 23:47:28 23:49:43 16° 288° (WNW) 23:51:57 435.315
DX 1 22 Jan 23:55:53 23:56:26 10° 67° (ENE) 23:56:58 434.975-435.025
ESTCUBE 1 22 Jan 23:56:12 23:58:01 12° 266° (W) 23:59:52 437.505/2401.250
O/OREOS (USA 219) 23 Jan 00:00:11 00:04:25 40° 292° (WNW) 00:08:39 437.305
YUBILEINY 23 Jan 00:00:29 00:07:40 28° 285° (WNW) 00:14:54 435.215
DUCHIFAT 1 23 Jan 00:04:35 00:08:50 81° 283° (WNW) 00:13:04 145.980
EO-79 23 Jan 00:08:50 00:12:58 51° 285° (WNW) 00:17:06 145.935-145.965
NO-84 23 Jan 00:24:57 00:27:41 36° 233° (SW) 00:30:33 435.350 FM
Oscar 19 23 Jan 00:34:47 00:38:59 25° 97° (E) 00:43:09 437.125/150
Gurwin Techsat 1B 23 Jan 00:39:05 00:43:00 21° 96° (E) 00:46:53 435.225
POLYITAN 1 23 Jan 00:45:24 00:48:26 19° 290° (WNW) 00:51:27 437.675
50 SAT 23 Jan 00:52:59 00:55:54 42° 76° (ENE) 00:58:50 437.505
AO-91 23 Jan 00:55:18 00:59:59 54° 101° (E) 01:05:02 145.960
BUGSAT 1 23 Jan 00:56:54 01:01:10 84° 103° (ESE) 01:05:24 437.445
FALCONSAT 3 23 Jan 00:57:35 01:00:26 21° 148° (SSE) 01:03:17 435.103
NANOSAT C BR1 23 Jan 00:59:19 01:01:45 15° 291° (WNW) 01:04:11 145.865
UKube-1 23 Jan 01:11:03 01:15:12 51° 75° (ENE) 01:19:22 .
VELOX 1 23 Jan 01:23:03 01:23:42 10° 267° (W) 01:24:20 145.980
DX 1 23 Jan 01:27:53 01:32:05 52° 259° (W) 01:36:18 434.975-435.025
ITUPSAT 1 23 Jan 01:48:52 01:52:17 20° 69° (ENE) 01:55:42 437.325
MOZHAYETS 4 23 Jan 01:56:24 02:00:46 44° 74° (ENE) 02:05:11
nSIGHT-1 23 Jan 02:02:50 02:05:26 23° 39° (NE) 02:08:02 .
CUBESAT XI-V 23 Jan 02:08:14 02:10:21 13° 68° (ENE) 02:12:28 437.345
Oscar 19 23 Jan 02:13:48 02:18:11 29° 290° (WNW) 02:22:32 437.125/150
Gurwin Techsat 1B 23 Jan 02:18:06 02:22:56 37° 288° (WNW) 02:27:45 435.225
AO-7 23 Jan 02:21:19 02:28:24 30° 99° (E) 02:35:25 .
BEESAT 23 Jan 02:25:31 02:30:08 53° 74° (ENE) 02:34:46 436.000
ISS 23 Jan 02:25:33 02:28:22 26° 40° (NE) 02:31:11 437.550
AO-91 23 Jan 02:33:47 02:36:02 13° 290° (WNW) 02:38:21 145.960
FALCONSAT 3 23 Jan 02:35:34 02:39:16 82° 340° (NNW) 02:42:56 435.103
SO-50 23 Jan 02:53:19 02:54:19 11° 107° (ESE) 02:55:22 436.795
ITAMSAT 1 23 Jan 03:24:28 03:29:36 57° 101° (ESE) 03:34:43 435.822/435.867
ITUPSAT 1 23 Jan 03:25:35 03:29:49 32° 262° (W) 03:34:05 437.325
MOZHAYETS 4 23 Jan 03:35:59 03:38:03 13° 266° (W) 03:40:09
nSIGHT-1 23 Jan 03:39:03 03:41:29 20° 232° (SW) 03:43:54 .
CUBESAT XI-V 23 Jan 03:42:43 03:47:14 48° 260° (W) 03:51:46 437.345
ISS 23 Jan 04:02:20 04:04:41 18° 233° (SW) 04:07:01 437.550
BEESAT 23 Jan 04:06:40 04:08:06 11° 266° (W) 04:09:33 436.000
DOVE 4 23 Jan 04:07:03 04:11:19 40° 100° (E) 04:15:46 437.250
AO-7 23 Jan 04:13:18 04:21:12 49° 293° (WNW) 04:29:05 .
FALCONSAT 3 23 Jan 04:15:08 04:18:33 36° 355° (N) 04:22:00 435.103
M-CUBED/EXP-1 PRIME 23 Jan 04:16:40 04:19:20 23° 102° (ESE) 04:21:59 437.505
SO-50 23 Jan 04:29:55 04:34:14 52° 299° (WNW) 04:38:38 436.795
KKS-1 23 Jan 04:44:16 04:48:39 74° 257° (WSW) 04:53:05 437.445
STARS 23 Jan 04:53:15 04:57:24 46° 74° (ENE) 05:01:35 437.465
ITAMSAT 1 23 Jan 05:06:02 05:08:30 14° 294° (WNW) 05:10:58 435.822/435.867
KAITUO 1B 23 Jan 05:06:03 05:07:29 12° 94° (E) 05:08:56 145.475/437.950
XW-2F 23 Jan 05:10:59 05:13:46 20° 96° (E) 05:16:33 145.980 - 146.000
NUDT-PHONESAT 23 Jan 05:11:58 05:13:49 13° 95° (E) 05:15:40 437.300
CUTE-I 23 Jan 05:15:55 05:20:09 24° 97° (E) 05:24:22 437.470
XW-2D 23 Jan 05:22:22 05:25:47 33° 98° (E) 05:29:10 145.860 - 145.880
HO-68 23 Jan 05:30:59 05:35:42 19° 95° (E) 05:40:23 435.675
RS-15 23 Jan 05:33:10 05:42:21 25° 102° (ESE) 05:51:27 29.354- 29.394
XW-2B 23 Jan 05:39:50 05:43:31 58° 100° (E) 05:47:12 145.730 - 145.750
DOVE 4 23 Jan 05:46:10 05:48:40 15° 290° (WNW) 05:51:13 437.250
M-CUBED/EXP-1 PRIME 23 Jan 05:52:26 05:53:28 11° 295° (WNW) 05:54:30 437.505
FALCONSAT 3 23 Jan 05:54:29 05:58:01 44° 11° (N) 06:01:32 435.103
STRAND 1 23 Jan 06:03:07 06:07:42 35° 72° (ENE) 06:12:19 437.568
CUTE 1.7 + AOD 2 23 Jan 06:04:52 06:08:29 28° 97° (E) 06:12:05 437.475
XW-2C 23 Jan 06:10:26 06:14:01 46° 284° (WNW) 06:17:35 145.795 - 145.815
LilacSat-2 23 Jan 06:11:35 06:15:07 40° 285° (WNW) 06:18:38 437.200
STARS 23 Jan 06:33:01 06:33:54 11° 266° (W) 06:34:47 437.465
FO-29 23 Jan 06:33:19 06:39:32 36° 72° (ENE) 06:45:06 435.910
KAITUO 1B 23 Jan 06:38:16 06:41:26 28° 286° (WNW) 06:44:36 145.475/437.950
CUBEBUG 2 23 Jan 06:42:50 06:47:30 55° 100° (E) 06:52:04 437.445
UWE-3 23 Jan 06:43:17 06:47:16 28° 97° (E) 06:51:10 435.000/436.395/437.385
JUGNU 23 Jan 06:43:59 06:46:03 12° 161° (SSE) 06:48:04 437.505
NUDT-PHONESAT 23 Jan 06:44:35 06:47:36 25° 287° (WNW) 06:50:35 437.300
XW-2F 23 Jan 06:45:09 06:47:40 18° 288° (WNW) 06:50:11 145.980 - 146.000
CUTE-I 23 Jan 06:55:26 07:00:07 32° 289° (WNW) 07:04:48 437.470
AAUSAT CUBESAT 2 23 Jan 06:56:27 06:59:53 26° 97° (E) 07:03:19 437.432
XW-2D 23 Jan 06:58:34 06:59:33 11° 291° (WNW) 07:00:32 145.860 - 145.880
ZACube-1 23 Jan 07:01:29 07:04:57 21° 95° (E) 07:08:19 437.345
AO-73 23 Jan 07:06:39 07:10:03 21° 95° (E) 07:13:23 145.935
HO-68 23 Jan 07:16:41 07:23:43 63° 288° (WNW) 07:30:45 435.675
BEESAT 3 23 Jan 07:19:48 07:22:18 16° 109° (ESE) 07:24:50 437.485
SEEDS 23 Jan 07:22:26 07:26:26 48° 285° (WNW) 07:30:25 437.485
PCSat 23 Jan 07:27:47 07:31:05 17° 104° (ESE) 07:34:23 145.827
FALCONSAT 3 23 Jan 07:33:32 07:37:09 58° 205° (SSW) 07:40:45 435.103
Oscar 11 23 Jan 07:36:34 07:40:16 28° 97° (E) 07:43:57 .
CUTE 1.7 + AOD 2 23 Jan 07:41:20 07:44:02 17° 290° (WNW) 07:46:44 437.475
RS-15 23 Jan 07:41:21 07:53:39 75° 298° (WNW) 08:05:56 29.354- 29.394
STRAND 1 23 Jan 07:43:16 07:46:54 20° 264° (W) 07:50:32 437.568
XW-2A 23 Jan 07:57:17 08:00:29 45° 284° (WNW) 08:03:39 145.665 - 145.685
BEESAT 2 23 Jan 08:14:15 08:16:46 16° 109° (ESE) 08:19:18 435.950
TIGRISAT 23 Jan 08:14:24 08:17:58 25° 71° (ENE) 08:21:38 435.000
FO-29 23 Jan 08:18:29 08:24:27 30° 261° (W) 08:29:54 435.910
UWE-3 23 Jan 08:20:01 08:23:28 21° 290° (WNW) 08:26:52 435.000/436.395/437.385
YUBILEINY 23 Jan 08:21:33 08:26:59 18° 71° (ENE) 08:32:23 435.215
CUBEBUG 2 23 Jan 08:21:50 08:23:32 12° 293° (WNW) 08:25:13 437.445
UNISAT 6 23 Jan 08:29:46 08:33:55 42° 74° (ENE) 08:38:11 437.425
JUGNU 23 Jan 08:29:56 08:34:27 23° 169° (S) 08:38:57 437.505
AAUSAT CUBESAT 2 23 Jan 08:32:21 08:35:05 17° 289° (WNW) 08:37:49 437.432
ZACube-1 23 Jan 08:37:24 08:41:05 25° 289° (WNW) 08:44:42 437.345
O/OREOS (USA 219) 23 Jan 08:39:21 08:40:19 11° 60° (ENE) 08:41:17 437.305
AO-73 23 Jan 08:42:29 08:46:09 25° 289° (WNW) 08:49:45 145.935
DELFI C3 23 Jan 08:42:59 08:46:20 26° 97° (E) 08:49:41 145.870
Max Valier Satellite 23 Jan 08:49:20 08:51:58 19° 96° (E) 08:54:36 145.860
BEESAT 3 23 Jan 08:56:06 08:59:32 28° 302° (WNW) 09:03:01 437.485
EO-88 23 Jan 09:01:50 09:04:11 16° 96° (E) 09:06:33 145.990 - 145.960
PCSat 23 Jan 09:08:48 09:14:00 48° 298° (WNW) 09:19:14 145.827
Oscar 11 23 Jan 09:13:13 09:16:08 18° 290° (WNW) 09:19:03 .
FALCONSAT 3 23 Jan 09:14:45 09:15:47 11° 216° (SW) 09:16:50 435.103
PRISM 23 Jan 09:27:49 09:31:33 37° 74° (ENE) 09:35:18 437.425
AO-85 23 Jan 09:37:16 09:39:24 14° 108° (ESE) 09:41:36 145.980
BEESAT 2 23 Jan 09:50:41 09:54:10 29° 302° (WNW) 09:57:43 435.950
TIGRISAT 23 Jan 09:51:09 09:54:32 22° 265° (W) 09:57:59 435.000
RS-15 23 Jan 10:00:10 10:08:28 20° 321° (NW) 10:16:44 29.354- 29.394
UNISAT 6 23 Jan 10:08:56 10:10:46 12° 267° (W) 10:12:37 437.425
NANOSAT C BR1 23 Jan 10:10:49 10:12:27 12° 68° (ENE) 10:14:07 145.865
LO-87 23 Jan 10:12:35 10:14:40 15° 95° (E) 10:16:44 145.935 - 145.965
AIST 2D 23 Jan 10:14:18 10:17:47 62° 77° (ENE) 10:21:15 435.315
O/OREOS (USA 219) 23 Jan 10:15:38 10:19:59 54° 255° (WSW) 10:24:22 437.305
YUBILEINY 23 Jan 10:15:49 10:24:29 75° 268° (W) 10:33:07 435.215
ESTCUBE 1 23 Jan 10:16:18 10:18:47 15° 94° (E) 10:21:16 437.505/2401.250
JUGNU 23 Jan 10:17:57 10:22:57 29° 179° (S) 10:27:57 437.505
DELFI C3 23 Jan 10:18:26 10:20:47 15° 289° (WNW) 10:23:09 145.870
Max Valier Satellite 23 Jan 10:23:02 10:25:36 18° 288° (WNW) 10:28:10 145.860
QB50P2 23 Jan 10:25:48 10:29:15 25° 72° (ENE) 10:32:45 145.880/145.840
EO-88 23 Jan 10:35:00 10:37:41 20° 288° (WNW) 10:40:21 145.990 - 145.960
SRMSAT 23 Jan 10:44:05 10:48:04 19° 165° (SSE) 10:52:04 437.500
DUCHIFAT 1 23 Jan 10:50:32 10:54:16 32° 73° (ENE) 10:58:02 145.980
EO-79 23 Jan 10:54:57 10:59:02 52° 75° (ENE) 11:03:10 145.935-145.965
PRISM 23 Jan 11:05:30 11:06:53 11° 266° (W) 11:08:17 437.425
SPROUT 23 Jan 11:15:10 11:17:31 14° 94° (E) 11:19:53 437.525
AO-85 23 Jan 11:15:58 11:19:25 30° 303° (WNW) 11:23:04 145.980
POLYITAN 1 23 Jan 11:30:41 11:34:48 52° 260° (W) 11:38:57 437.675
VELOX 1 23 Jan 11:39:48 11:42:13 14° 95° (E) 11:44:38 145.980
BUGSAT 1 23 Jan 11:41:12 11:44:32 25° 72° (ENE) 11:47:56 437.445
NANOSAT C BR1 23 Jan 11:43:46 11:47:43 41° 261° (W) 11:51:42 145.865
LO-87 23 Jan 11:45:05 11:47:58 23° 287° (WNW) 11:50:50 145.935 - 145.965
Oscar 19 23 Jan 11:46:21 11:50:12 21° 69° (ENE) 11:54:05 437.125/150
AO-91 23 Jan 11:49:30 11:51:23 14° 70° (ENE) 11:53:16 145.960
ESTCUBE 1 23 Jan 11:51:32 11:55:38 36° 287° (WNW) 11:59:43 437.505/2401.250
Gurwin Techsat 1B 23 Jan 11:54:58 11:58:40 20° 68° (ENE) 12:02:24 435.225
QB50P2 23 Jan 12:01:55 12:04:56 19° 264° (W) 12:07:59 145.880/145.840
JUGNU 23 Jan 12:06:48 12:11:28 25° 189° (S) 12:16:07 437.505
DUCHIFAT 1 23 Jan 12:27:37 12:29:56 14° 265° (W) 12:32:15 145.980
SRMSAT 23 Jan 12:31:42 12:36:42 28° 175° (S) 12:41:45 437.500
SPROUT 23 Jan 12:49:33 12:53:26 34° 287° (WNW) 12:57:18 437.525
UKube-1 23 Jan 13:05:13 13:07:20 13° 95° (E) 13:09:28 .
SO-50 23 Jan 13:06:32 13:10:39 29° 57° (ENE) 13:14:48 436.795
VELOX 1 23 Jan 13:14:41 13:18:42 36° 287° (WNW) 13:22:42 145.980
AO-7 23 Jan 13:14:44 13:21:16 26° 61° (ENE) 13:27:48 .
BUGSAT 1 23 Jan 13:17:03 13:19:49 18° 265° (W) 13:22:36 437.445
DX 1 23 Jan 13:21:33 13:25:38 40° 100° (E) 13:29:43 434.975-435.025
Oscar 19 23 Jan 13:24:32 13:29:14 35° 261° (W) 13:33:58 437.125/150
AO-91 23 Jan 13:25:17 13:27:41 18° 264° (W) 13:30:07 145.960
Gurwin Techsat 1B 23 Jan 13:33:18 13:38:15 40° 261° (W) 13:43:14 435.225
50 SAT 23 Jan 13:43:50 13:46:56 83° 103° (ESE) 13:50:01 437.505
JUGNU 23 Jan 13:57:05 13:59:54 14° 198° (SSW) 14:02:42 437.505
MOZHAYETS 4 23 Jan 13:58:15 14:01:08 16° 95° (E) 14:03:59
NO-84 23 Jan 13:58:54 14:00:43 14° 124° (SE) 14:02:28 435.350 FM
SRMSAT 23 Jan 14:20:23 14:25:25 29° 185° (S) 14:30:29 437.500
BEESAT 23 Jan 14:32:00 14:35:39 21° 96° (E) 14:39:17 436.000
ITAMSAT 1 23 Jan 14:36:45 14:41:42 49° 73° (ENE) 14:46:40 435.822/435.867
UKube-1 23 Jan 14:39:27 14:43:24 36° 287° (WNW) 14:47:21 .
RS-15 23 Jan 14:41:04 14:48:46 19° 37° (NE) 14:56:11 29.354- 29.394
SO-50 23 Jan 14:47:08 14:50:57 24° 250° (WSW) 14:54:46 436.795
M-CUBED/EXP-1 PRIME 23 Jan 14:56:56 14:59:38 16° 67° (ENE) 15:02:14 437.505
DX 1 23 Jan 14:59:20 15:01:24 13° 292° (WNW) 15:03:28 434.975-435.025
AO-7 23 Jan 15:05:14 15:13:24 59° 256° (WSW) 15:21:38 .
DOVE 4 23 Jan 15:08:09 15:11:12 19° 71° (ENE) 15:14:11 437.250
ITUPSAT 1 23 Jan 15:31:02 15:35:51 80° 284° (WNW) 15:40:39 437.325
MOZHAYETS 4 23 Jan 15:34:08 15:38:18 35° 287° (WNW) 15:42:27
NO-84 23 Jan 15:34:47 15:37:42 28° 313° (NW) 15:40:25 435.350 FM
CUBESAT XI-V 23 Jan 15:44:43 15:49:17 65° 101° (E) 15:53:49 437.345
BEESAT 23 Jan 16:09:13 16:13:20 29° 289° (WNW) 16:17:26 436.000
SRMSAT 23 Jan 16:09:57 16:14:05 19° 194° (SSW) 16:18:14 437.500
XW-2B 23 Jan 16:17:01 16:18:43 13° 70° (ENE) 16:20:25 145.730 - 145.750
ITAMSAT 1 23 Jan 16:18:34 16:21:19 14° 266° (W) 16:24:06 435.822/435.867
M-CUBED/EXP-1 PRIME 23 Jan 16:29:46 16:33:44 33° 256° (WSW) 16:37:30 437.505
CUTE-I 23 Jan 16:32:26 16:36:30 23° 69° (ENE) 16:40:33 437.470
KKS-1 23 Jan 16:41:00 16:45:00 32° 99° (E) 16:48:59 437.445
DOVE 4 23 Jan 16:45:12 16:48:42 24° 263° (W) 16:52:08 437.250
XW-2C 23 Jan 16:45:39 16:49:04 32° 74° (ENE) 16:52:29 145.795 - 145.815
LilacSat-2 23 Jan 16:47:15 16:50:50 37° 75° (ENE) 16:54:24 437.200
STARS 23 Jan 16:49:40 16:51:54 14° 95° (E) 16:54:07 437.465
RS-15 23 Jan 16:51:53 17:03:29 76° 62° (ENE) 17:14:28 29.354- 29.394
CUTE 1.7 + AOD 2 23 Jan 16:54:48 16:55:17 10° 68° (ENE) 16:55:45 437.475
KAITUO 1B 23 Jan 17:11:29 17:15:07 48° 76° (ENE) 17:18:44 145.475/437.950
NUDT-PHONESAT 23 Jan 17:16:40 17:20:18 53° 76° (ENE) 17:23:57 437.300
BEESAT 3 23 Jan 17:17:45 17:20:55 24° 57° (ENE) 17:24:04 437.485
XW-2F 23 Jan 17:18:29 17:22:18 87° 72° (ENE) 17:26:06 145.980 - 146.000
ISS 23 Jan 17:26:37 17:27:54 12° 125° (SE) 17:29:11 437.550
XW-2D 23 Jan 17:31:01 17:34:46 52° 260° (W) 17:38:30 145.860 - 145.880
